Location: *
(35.8942°N, 23.3025°E)
Time: 23:28:03
(UTC+00:00)

Okean 1 - Pass Details

Date: 21 September 2021
Orbit: 539 x 552 km, 82.5° (Epoch: 22 October)

Event Time Altitude Azimuth Distance (km) Brightness Sun altitude
Rises 03:37:46 0° 180° (S) 2,679 6.8 -8.1°
Reaches altitude 10° 03:39:55 10° 178° (S) 1,792 5.9 -7.7°
Maximum altitude 03:43:49 69° 95° (E) 581 3.7 -6.9°
Drops below altitude 10° 03:47:46 10° 12° (NNE) 1,804 6.2 -6.1°
Sets 03:49:56 0° 10° (N) 2,701 7.1 -5.7°
